Flag for Australia Weather past 2 weeks in Albury, New South Wales, Australia

Now
63 °F

Clear.


Feels Like: 63 °F
Forecast: 60 / 80 °F
Wind: 5 mph from Southeast

Location: Albury Airport

Current Time: Jan 27, 2015 at 2:20:48 AM

Latest Report: Jan 27, 2015 at 2:00 AM


Visibility: N/A

Pressure: 29.89 "Hg

Humidity: 59%

Dew point: 48 °F

Location of AlburyLocation

Historic Weather in Albury — Graph

°F

Albury temperature yesterday

Maximum temperature yesterday: 77 °F (at 3:00 PM)
Minimum temperature yesterday: 54 °F (at 6:00 AM)
Average temperature yesterday: 67 °F

Past Weeks' High & Low Weather Summary

 TemperatureHumidityPressure
High95 °F (Jan 23, 5:00 PM)100% (Jan 13, 5:00 PM)29.95 "Hg (Jan 13, 5:00 PM)
Low54 °F (Jan 16, 6:00 AM)21% (Jan 25, 7:00 PM)29.45 "Hg (Jan 13, 6:00 PM)
Average73 °F57%29.76 "Hg
* Reported Jan 12 1:00 AM — Jan 27 1:00 AM, Albury, Weather by CustomWeather, © 2014

Note: Actual official high and low records may vary slightly from our data, if they occured in-between our weather recording intervals... More about our weather records

Advertising

Albury weather history for previous 24 hours

 ConditionsComfort  
Time TempWeatherWind HumidityBarometerVisibility
1:00 AM
Jan 27
63 °FClear.7 mph59%29.92 "HgN/A
12:00 AM63 °FClear.9 mph56%29.89 "HgN/A
11:00 PM
Jan 26
66 °FPassing clouds.12 mph52%29.89 "HgN/A
10:00 PM64 °FClear.7 mph56%29.86 "HgN/A
9:00 PM70 °FClear.3 mph38%29.86 "HgN/A
8:00 PM73 °FSunny.7 mph31%29.83 "HgN/A
7:00 PM77 °FSunny.7 mph28%29.83 "HgN/A
6:00 PM77 °FSunny.7 mph26%29.80 "HgN/A
5:00 PM77 °FSunny.5 mph26%29.83 "HgN/A
4:00 PM77 °FSunny.6 mph24%29.86 "HgN/A
3:00 PM77 °FSunny.6 mph26%29.86 "HgN/A
2:00 PM75 °FSunny.5 mph34%29.89 "HgN/A
1:00 PM73 °FSunny.6 mph36%29.89 "HgN/A
12:00 PM72 °FSunny.7 mph36%29.92 "HgN/A
11:00 AM70 °FSunny.6 mph40%29.92 "HgN/A
10:00 AM68 °FSunny.3 mph53%29.92 "HgN/A
9:00 AM64 °FSunny.6 mph60%29.92 "HgN/A
8:00 AM59 °FSunny.5 mph63%29.92 "HgN/A
7:00 AM55 °FSunny.5 mph67%29.89 "HgN/A
6:00 AM54 °FClear.3 mph67%29.89 "HgN/A
5:00 AM55 °FClear.3 mph63%29.86 "HgN/A
4:00 AM55 °FClear.1 mph67%29.83 "HgN/A
3:00 AM57 °FClear.5 mph63%29.83 "HgN/A
2:00 AM59 °FClear.3 mph55%29.83 "HgN/A
Weather by CustomWeather, © 2014

See weather overviewHow to use our weather pages